This demonstration page uses our WeatherBlox Daily Observations layout. Learn more.

Left ArrowRight Arrow

39.08367, -84.50855

Hourly Observations for September 13, 2015

Temp ( °F °C ) Dew Point ( °F °C ) Humidity (%) Winds ( mph kmh ) Pressure ( in mb ) Visibility ( mi km ) Precip ( " mm )
12:53 am 00:53 Clear 52 11.1 50 10 93 93 Calm 29.98 1015 10 16 0.00 0.00
1:53 am 01:53 Cloudy 50 10 50 10 100 100 Calm 29.98 1015 9 14 0.00 0.00
2:53 am 02:53 Mostly Cloudy 52 11.1 50 10 93 93 Calm 29.97 1015 10 16 0.00 0.00
3:53 am 03:53 Cloudy 52 11.1 50 10 93 93 Calm 29.98 1015 10 16 0.00 0.00
4:53 am 04:53 Cloudy 52 11.1 50 10 93 93 Calm 29.98 1015 10 16 0.00 0.00
5:53 am 05:53 Cloudy 52 11.1 51 10.6 97 97 Calm 29.99 1016 10 16 0.00 0.00
6:53 am 06:53 Cloudy 53 11.7 51 10.6 93 93 VRB 3 6 30.01 1016 10 16 0.00 0.00
7:53 am 07:53 Partly Cloudy 51 10.6 51 10.6 100 100 Calm 30.04 1017 9 14 0.00 0.00
8:53 am 08:53 Sunny 57 13.9 52 11.1 83 83 Calm 30.04 1017 10 16 0.00 0.00
9:53 am 09:53 Sunny 59 15 50 10 72 72 VRB 6 9 30.06 1018 10 16 0.00 0.00
10:53 am 10:53 Mostly Sunny 61 16.1 51 10.6 70 70 W 7 11 30.07 1018 10 16 0.00 0.00
11:53 am 11:53 Mostly Cloudy 64 17.8 50 10 60 60 WSW 9 15 30.07 1018 10 16 0.00 0.00
12:53 pm 12:53 Mostly Cloudy 65 18.3 48 8.9 54 54 W 12 19 30.07 1018 10 16 0.00 0.00
1:53 pm 13:53 Partly Cloudy 66 18.9 47 8.3 50 50 WNW 6 9 30.06 1018 10 16 0.00 0.00
2:53 pm 14:53 Partly Cloudy 68 20 46 7.8 45 45 W 8 13 30.05 1018 10 16 0.00 0.00
3:53 pm 15:53 Partly Cloudy 68 20 43 6.1 40 40 WNW 12 19 30.05 1018 10 16 0.00 0.00
4:53 pm 16:53 Mostly Sunny 67 19.4 40 4.4 37 37 WNW 10 17 30.04 1017 10 16 0.00 0.00
5:53 pm 17:53 Mostly Cloudy 69 20.6 43 6.1 39 39 NNW 7 11 30.04 1017 10 16 0.00 0.00
6:53 pm 18:53 Mostly Cloudy 67 19.4 43 6.1 42 42 NW 8 13 30.05 1018 10 16 0.00 0.00
7:53 pm 19:53 Mostly Clear 61 16.1 46 7.8 58 58 NW 3 6 30.06 1018 10 16 0.00 0.00
8:53 pm 20:53 Clear 54 12.2 50 10 87 87 Calm 30.07 1018 10 16 0.00 0.00
9:53 pm 21:53 Clear 53 11.7 50 10 89 89 Calm 30.09 1019 10 16 0.00 0.00
10:53 pm 22:53 Clear 51 10.6 50 10 96 96 Calm 30.10 1019 10 16 0.00 0.00
11:53 pm 23:53 Clear 50 10 49 9.4 96 96 Calm 30.11 1020 10 16 0.00 0.00

Powered by AerisWeather